Location: Lake Arresoe
(56.0000°N, 12.5000°E)
Time: 07:20:20
(UTC+02:00)

Okean 3 - Pass Details

Date: 22 August 2020
Orbit: 577 x 600 km, 82.5° (Epoch: 21 September)

Event Time Altitude Azimuth Distance (km) Brightness Sun altitude
Rises 21:40:02 0° 348° (NNW) 2,864 7.8 -9.5°
Reaches altitude 10° 21:42:15 10° 350° (N) 1,958 6.9 -9.7°
Maximum altitude 21:46:36 79° 76° (ENE) 620 3.5 -10.2°
Drops below altitude 10° 21:50:54 10° 165° (SSE) 1,942 5.6 -10.7°
Enters shadow 21:51:00 - 165° (SSE) 1,984 5.7 -10.7°
